{"data":{"norad_id":63258,"epoch":"2026-09-22T15:29:57.817248Z","epoch_age_seconds":123226,"freshness":"FRESH","line1":"1 63258U 25052BA  26265.64580807  .00001583  00000+0  14785-3 0  9991","line2":"2 63258  97.6742 155.6092 0001754  84.6270 275.5152 14.95552160 83212","mean_motion":14.9555216,"eccentricity":0.0001754,"inclination_deg":97.6742,"raan_deg":155.6092,"arg_perigee_deg":84.627,"mean_anomaly_deg":275.5152,"bstar":0.00014785,"rev_number":8321,"period_min":96.285508356994,"perigee_km":579.43885263238,"apogee_km":581.87999841845,"semimajor_km":6958.7964255254,"source":"CELESTRAK","updated_at":"2026-09-23T09:00:21.940712Z"}}